[[{"header":{"parameterUnit":"m.s-1","parameterCategory":1,"la1":30.2991,"la2":30.254,"lo1":-89.0895,"lo2":-89.0444,"dy":0.0017,"dx":0.0017,"nx":28,"ny":28,"refTime":"2024-08-17T21:00:00:Z","depth":0,"parameterNumber":2,"parameterNumberName":"U-component_of_WINDS"},"data":[0,0,0,0,0,0,0,0,0,0,0,0,0,0,0,0,0,0,0,0,0,0,0,0,0,0,0,0,0,0,0,0,0,0,0,0,0,0,0,0,0,0,0,0,0,0,0,0,0,0,0,0,0,0,0,0,0,0,3.7846,3.7846,0,3.7873,3.7873,3.7873,3.7739,3.7735,3.7731,3.7727,3.7759,3.7763,3.7768,0,0,0,0,0,0,0,0,0,0,0,0,0,3.7684,3.7688,3.7846,3.7846,3.7846,3.7873,3.7873,3.7873,3.7739,3.7734,3.773,3.7725,3.7758,3.7763,3.7768,0,0,0,0,0,0,0,0,0,0,0,0,0,3.7737,3.7689,3.7845,3.7782,3.7777,3.7872,3.7873,3.7873,3.774,3.7734,3.7729,3.7723,3.7756,3.7762,3.7769,3.7928,0,0,3.7789,3.7792,0,0,0,0,0,0,0,0,3.7734,3.7743,3.7791,3.7787,3.7781,3.7796,3.7827,3.7892,3.7742,3.7754,3.7727,3.772,3.7776,3.7781,3.7799,3.7929,3.793,3.779,3.7794,3.7797,3.7799,0,0,0,0,0,0,0,3.7731,3.7741,3.7856,3.7792,3.7786,3.7755,3.7756,3.7839,3.7798,3.7753,3.7743,3.7748,3.7772,3.7793,3.7799,3.7931,3.779,3.7796,3.78,3.7803,3.8197,3.8203,0,0,0,0,0,0,3.7735,3.7739,3.7855,3.7857,3.7743,3.7763,3.7764,3.7797,3.7797,3.7791,3.7753,3.7742,3.7784,3.7791,3.7799,3.7988,3.7797,3.7803,3.7807,3.8191,3.8199,3.8206,0,0,0,0,0,0,3.7732,3.7746,3.7854,3.7796,3.7807,3.7771,3.781,3.7801,3.7821,3.7797,3.7789,3.7781,3.778,3.779,3.7897,3.7987,3.7806,3.7812,3.8183,3.8193,3.8202,3.8365,0,0,0,0,0,0,3.7728,3.7746,3.7804,3.7798,3.7811,3.795,3.7816,3.7806,3.7833,3.7818,3.7821,3.7816,3.7776,3.7888,3.7904,3.7993,3.7818,3.8175,3.8188,3.8199,3.8351,3.8379,3.8402,0,0,0,0,0,3.7722,3.7849,3.7808,3.7823,3.7882,3.7956,3.7963,3.7913,3.784,3.79,3.7885,3.7816,3.7975,3.79,3.7917,3.8009,3.8169,3.8184,3.8198,3.834,3.8373,3.8402,0,0,0,0,0,0,3.7867,3.7847,3.7801,3.7929,3.7945,3.7933,3.8006,3.795,3.7988,3.7973,3.7911,3.7913,3.8033,3.8031,3.7949,3.8165,3.806,3.8078,3.8161,3.8193,3.8218,3.8216,3.7823,0,0,0,0,0,3.7914,3.7974,3.7953,3.8068,3.8078,3.8042,3.8071,3.8032,3.8047,3.8053,3.8046,3.8065,3.8119,3.8156,3.8204,3.8351,3.8351,3.8423,3.8448,3.8469,3.8487,3.8568,3.86,3.8253,3.8253,3.8253,0,0,3.8011,3.8007,3.8049,3.8097,3.8105,3.8171,3.8048,3.8121,3.817,3.8065,3.8166,3.8162,3.8179,3.8308,3.8364,3.8311,3.8583,3.8488,3.8505,3.851,3.8586,3.8619,3.8648,3.8263,3.8261,3.826,0,0,3.8222,3.8224,3.8321,3.8333,3.8346,3.8321,3.8345,3.8342,3.8335,3.8436,3.8359,3.8418,3.8511,3.8528,3.8548,3.877,3.871,3.8788,3.8922,3.9002,3.9029,3.9053,3.9135,3.9165,3.8805,3.8805,3.8806,0,3.8341,3.8435,3.8379,3.8459,3.8484,3.8391,3.8492,3.8505,3.8535,3.8556,3.8495,3.8614,3.8618,3.8751,3.8806,3.8825,3.8852,3.8787,3.9029,3.9053,3.9074,3.9152,3.9183,3.8815,3.8814,3.8813,3.8812,0,3.8583,3.865,3.8727,3.8758,3.8792,3.8882,3.8842,3.8883,3.8842,3.8825,3.8931,3.8934,3.8983,3.9011,3.8972,3.9141,3.9107,3.9039,3.8932,3.9118,3.919,3.9219,3.8829,3.8825,3.8822,3.882,0,0,3.8884,3.8885,3.8914,3.8929,3.8939,3.8991,3.9078,3.9125,3.9164,3.9188,3.9262,3.9345,3.9284,3.9307,3.9269,3.9339,3.9519,3.9263,3.9262,3.9312,3.9709,3.9761,3.9796,3.9479,3.9484,3.9488,3.9708,0,3.9092,3.924,3.9194,3.9344,3.9407,3.9322,3.9398,3.9415,3.9402,3.9455,3.9441,3.9503,3.9415,3.9429,3.9495,3.9483,3.9598,3.9467,3.9549,3.9553,3.9549,3.9833,3.9888,4.0095,3.9736,3.974,3.9744,0,3.9354,3.939,3.9546,3.9549,3.9574,3.9643,3.9685,3.9736,3.9755,3.974,3.9769,3.9718,3.9807,3.9699,3.9823,3.9735,3.9766,3.9767,3.9773,3.978,3.966,3.985,4.0159,4.0192,3.9787,3.9784,3.9781,0,3.9562,3.9648,3.9754,3.9769,3.9774,3.9825,3.983,3.9842,3.9875,3.9912,3.9934,3.9981,4.0008,4.0048,4.0012,3.9936,4.0143,4.0031,4.0136,4.0137,4.0183,4.0181,4.0505,4.0202,4.0201,4.0201,4.02,0,3.98,3.99,3.9848,3.9913,4.0023,3.9971,4.0082,4.0078,4.009,4.0155,4.0085,4.0148,4.0096,4.0155,4.0128,4.0237,4.0249,4.0242,4.0234,4.0249,4.0251,4.0269,4.0255,4.0209,4.0207,4.0206,4.0204,0,4.005,4.0018,4.0129,4.0125,4.0127,4.0209,4.0207,4.0269,4.0252,4.0335,4.0352,4.0326,4.0393,4.0361,4.043,4.0412,4.0553,4.0525,4.0547,4.054,4.0647,4.0639,4.0996,4.1041,4.0708,4.0711,4.0714,0,4.0205,4.0279,4.0285,4.0323,4.0333,4.0395,4.0428,4.038,4.0419,4.0447,4.0507,4.0567,4.0613,4.0724,4.0713,4.0767,4.074,4.0862,4.0748,4.0762,4.0745,4.0742,4.075,4.0885,4.0889,4.0892,4.0895,0,4.0484,4.0465,4.0515,4.0561,4.0603,4.0637,4.0666,4.0702,4.0655,4.0702,4.0769,4.0805,4.0877,4.0939,4.0987,4.0994,4.0939,4.0931,4.0958,4.0975,4.0986,4.0984,4.0611,4.0923,4.092,4.0918,4.0916,4.0915,4.0692,4.0756,4.077,4.083,4.0846,4.0875,4.0934,4.0925,4.0979,4.1033,4.1003,4.1082,4.1102,4.1161,4.1176,4.124,4.1192,4.1231,4.1241,4.1252,4.1268,4.0975,4.1248,4.1247,4.1246,4.1246,4.1245,0,4.0969,4.0975,4.103,4.1072,4.112,4.1062,4.1092,4.1136,4.1206,4.1229,4.1276,4.1356,4.1416,4.1411,4.1468,4.152,4.1496,4.1537,4.1533,4.1536,4.1306,4.1277,4.1555,4.1555,4.1555,4.1555,4.1555,4.1555,4.1119,4.1225,4.1209,4.1325,4.133,4.1406,4.1429,4.1456,4.1474,4.1566,4.1616,4.1611,4.1624,4.1682,4.1736,4.1733,4.1759,4.1809,4.1798,4.1583,4.1552,4.1523,4.1496,4.1815,4.1815,4.2023,4.2025,4.2026]},{"header":{"parameterUnit":"m.s-1","parameterCategory":1,"la1":30.2991,"la2":30.254,"lo1":-89.0895,"lo2":-89.0444,"dy":0.0017,"dx":0.0017,"nx":28,"ny":28,"refTime":"2024-08-17T21:00:00:Z","depth":0,"parameterNumber":3,"parameterNumberName":"V-component_of_WINDS"},"data":[0,0,0,0,0,0,0,0,0,0,0,0,0,0,0,0,0,0,0,0,0,0,0,0,0,0,0,0,0,0,0,0,0,0,0,0,0,0,0,0,0,0,0,0,0,0,0,0,0,0,0,0,0,0,0,0,0,0,-0.2354,-0.2353,0,-0.2281,-0.2281,-0.228,-0.225,-0.225,-0.225,-0.225,-0.2176,-0.2174,-0.2172,0,0,0,0,0,0,0,0,0,0,0,0,0,-0.2466,-0.2464,-0.2354,-0.2353,-0.2352,-0.2282,-0.2281,-0.228,-0.225,-0.225,-0.225,-0.225,-0.2177,-0.2174,-0.2172,0,0,0,0,0,0,0,0,0,0,0,0,0,-0.2408,-0.2463,-0.2354,-0.2328,-0.2325,-0.2282,-0.2281,-0.2279,-0.225,-0.225,-0.225,-0.225,-0.2178,-0.2174,-0.2171,-0.2148,0,0,-0.2162,-0.216,0,0,0,0,0,0,0,0,-0.2411,-0.2404,-0.2333,-0.233,-0.2327,-0.2275,-0.2293,-0.2235,-0.225,-0.2278,-0.225,-0.225,-0.2209,-0.2203,-0.2189,-0.2144,-0.2141,-0.2161,-0.2159,-0.2158,-0.2157,0,0,0,0,0,0,0,-0.2415,-0.2406,-0.2325,-0.2332,-0.2328,-0.2321,-0.2313,-0.2282,-0.2243,-0.2276,-0.2273,-0.2265,-0.2207,-0.2192,-0.2187,-0.214,-0.2161,-0.2159,-0.2157,-0.2156,-0.2073,-0.2072,0,0,0,0,0,0,-0.2423,-0.241,-0.2327,-0.2323,-0.237,-0.2319,-0.231,-0.2291,-0.2243,-0.2236,-0.2265,-0.2264,-0.2197,-0.2191,-0.2184,-0.2153,-0.2158,-0.2155,-0.2153,-0.2073,-0.2072,-0.2072,0,0,0,0,0,0,-0.2426,-0.2416,-0.233,-0.2366,-0.2354,-0.2316,-0.2296,-0.229,-0.2275,-0.2235,-0.2228,-0.2257,-0.2197,-0.2189,-0.2157,-0.215,-0.2154,-0.2151,-0.2073,-0.2073,-0.2072,-0.2091,0,0,0,0,0,0,-0.2429,-0.2417,-0.2408,-0.2366,-0.2353,-0.2304,-0.2296,-0.2288,-0.2269,-0.2267,-0.2226,-0.2219,-0.2197,-0.2162,-0.2154,-0.2146,-0.2148,-0.2074,-0.2073,-0.2072,-0.2091,-0.2092,-0.2092,0,0,0,0,0,-0.2433,-0.2416,-0.2407,-0.2397,-0.234,-0.2304,-0.2296,-0.2271,-0.2269,-0.2259,-0.2234,-0.2221,-0.2153,-0.2159,-0.215,-0.2141,-0.2074,-0.2073,-0.2072,-0.2091,-0.2092,-0.2092,0,0,0,0,0,0,-0.2457,-0.241,-0.24,-0.2368,-0.234,-0.2299,-0.2285,-0.2272,-0.2244,-0.2243,-0.2213,-0.2204,-0.2175,-0.2155,-0.2162,-0.2116,-0.2112,-0.211,-0.213,-0.213,-0.213,-0.2135,-0.2146,0,0,0,0,0,-0.2459,-0.2434,-0.2393,-0.2369,-0.2356,-0.2323,-0.2307,-0.229,-0.2259,-0.2247,-0.222,-0.2191,-0.2163,-0.2146,-0.2118,-0.2089,-0.2079,-0.2078,-0.2079,-0.2079,-0.2077,-0.206,-0.2059,-0.207,-0.207,-0.207,0,0,-0.2462,-0.2433,-0.2418,-0.2374,-0.235,-0.2325,-0.2313,-0.2287,-0.2268,-0.2243,-0.2212,-0.2191,-0.2157,-0.2126,-0.2112,-0.2109,-0.2072,-0.2078,-0.2079,-0.2076,-0.206,-0.2059,-0.2058,-0.2069,-0.2069,-0.207,0,0,-0.2454,-0.243,-0.2407,-0.2384,-0.2349,-0.2327,-0.2322,-0.2282,-0.2268,-0.2236,-0.2217,-0.2194,-0.2147,-0.2123,-0.2105,-0.2091,-0.2077,-0.2082,-0.2084,-0.2068,-0.2068,-0.2067,-0.2061,-0.206,-0.2081,-0.2081,-0.2081,0,-0.2462,-0.2423,-0.2397,-0.2372,-0.2353,-0.233,-0.2307,-0.2286,-0.2243,-0.2231,-0.2228,-0.2169,-0.2145,-0.2109,-0.2105,-0.2091,-0.2084,-0.2086,-0.207,-0.2069,-0.2068,-0.2062,-0.206,-0.2081,-0.2081,-0.2081,-0.2081,0,-0.2434,-0.2408,-0.2394,-0.2354,-0.2333,-0.2309,-0.228,-0.2263,-0.2248,-0.2227,-0.2195,-0.2165,-0.2131,-0.2121,-0.2107,-0.2083,-0.2083,-0.2076,-0.2072,-0.2068,-0.2062,-0.206,-0.2083,-0.2082,-0.2082,-0.2082,0,0,-0.2438,-0.2385,-0.238,-0.2362,-0.2322,-0.2301,-0.2277,-0.2244,-0.2229,-0.2201,-0.218,-0.2141,-0.2134,-0.2114,-0.2096,-0.2083,-0.2073,-0.2077,-0.2076,-0.2077,-0.2046,-0.2051,-0.2049,-0.2065,-0.2064,-0.2064,-0.2049,0,-0.2425,-0.2379,-0.2356,-0.2321,-0.2296,-0.2275,-0.2254,-0.2227,-0.2207,-0.2184,-0.2162,-0.2135,-0.2128,-0.2116,-0.2101,-0.2077,-0.2066,-0.2078,-0.2044,-0.2043,-0.2052,-0.2046,-0.2051,-0.2038,-0.2046,-0.2046,-0.2046,0,-0.2402,-0.2375,-0.2337,-0.2301,-0.229,-0.2271,-0.2239,-0.2217,-0.2187,-0.2173,-0.2151,-0.2134,-0.2108,-0.2107,-0.207,-0.2079,-0.2064,-0.205,-0.2049,-0.2044,-0.2043,-0.204,-0.2033,-0.2031,-0.2042,-0.2042,-0.2042,0,-0.2408,-0.2362,-0.2334,-0.2319,-0.2276,-0.2263,-0.2245,-0.2215,-0.2197,-0.2169,-0.2157,-0.2127,-0.2111,-0.2088,-0.2064,-0.2065,-0.203,-0.2026,-0.2018,-0.2018,-0.201,-0.2011,-0.2,-0.2002,-0.2002,-0.2002,-0.2002,0,-0.2395,-0.2373,-0.2336,-0.2318,-0.2293,-0.2267,-0.2243,-0.2223,-0.2197,-0.2175,-0.2156,-0.2136,-0.2105,-0.2082,-0.2063,-0.2035,-0.2028,-0.2017,-0.2012,-0.2018,-0.2019,-0.2007,-0.2007,-0.2001,-0.2002,-0.2002,-0.2002,0,-0.2397,-0.2371,-0.2339,-0.2301,-0.2292,-0.2275,-0.2242,-0.2225,-0.2205,-0.2178,-0.217,-0.2138,-0.211,-0.2084,-0.2045,-0.2033,-0.2005,-0.1999,-0.2015,-0.2012,-0.2005,-0.2006,-0.1985,-0.1981,-0.1987,-0.1987,-0.1987,0,-0.2389,-0.2372,-0.2333,-0.2317,-0.2299,-0.2274,-0.2256,-0.223,-0.2212,-0.2177,-0.2164,-0.2134,-0.2109,-0.2064,-0.2038,-0.2009,-0.2002,-0.1997,-0.1997,-0.2004,-0.2001,-0.2002,-0.2,-0.1996,-0.1997,-0.1997,-0.1997,0,-0.2379,-0.2368,-0.2342,-0.2313,-0.2292,-0.2267,-0.2242,-0.223,-0.22,-0.218,-0.2151,-0.2132,-0.2093,-0.2064,-0.2032,-0.2014,-0.2,-0.1997,-0.1993,-0.1999,-0.2009,-0.2003,-0.2015,-0.1997,-0.1997,-0.1997,-0.1997,-0.1997,-0.2375,-0.2359,-0.2329,-0.2302,-0.2281,-0.2258,-0.224,-0.2218,-0.2193,-0.216,-0.2146,-0.2117,-0.2088,-0.2044,-0.2026,-0.2002,-0.1999,-0.1994,-0.1993,-0.1992,-0.1993,-0.2014,-0.1996,-0.1996,-0.1996,-0.1996,-0.1996,0,-0.2364,-0.2344,-0.2319,-0.2285,-0.2263,-0.2254,-0.2225,-0.2208,-0.2182,-0.2157,-0.2133,-0.2099,-0.2071,-0.2043,-0.2014,-0.2,-0.1994,-0.1994,-0.1994,-0.199,-0.1997,-0.2003,-0.2,-0.2,-0.2,-0.2,-0.2,-0.2,-0.2355,-0.2327,-0.2312,-0.2274,-0.2254,-0.2225,-0.221,-0.2189,-0.2168,-0.2132,-0.2109,-0.2091,-0.2065,-0.2033,-0.2007,-0.2,-0.199,-0.1991,-0.1982,-0.1989,-0.1989,-0.1989,-0.1994,-0.1989,-0.1989,-0.1976,-0.1976,-0.1976]}]]